Address 0x9895c1d2176f4762fa926dd0ce6255a45fb5df08 7

 
Txn Hash Method
Block
From
To
Value [Txn Fee]
0x531c61e7a009449edfa56b511b9341083c8cd4f5110d1ef5d23331650d9ae334Confirm19422192021-10-05 12:47:0053 days 10 hrs ago0x9895c1d2176f4762fa926dd0ce6255a45fb5df08OUT 0x841ce48f9446c8e281d3f1444cb859b4a6d0738c0 ETH0.000630879496 ETH
0x06e3bbe769d5ab645b49003d14246bfcbf5c19573975b0c737a433ae36448d18Transfer Out19421752021-10-05 12:45:1953 days 10 hrs ago0x9895c1d2176f4762fa926dd0ce6255a45fb5df08OUT 0x841ce48f9446c8e281d3f1444cb859b4a6d0738c0 ETH0.001719661116 ETH
0x5328d4d197aaf98bdc9cde9eb4ae52ab5320b1f68ce74091f4fae9caf7e4a782Confirm19420612021-10-05 12:41:3253 days 10 hrs ago0x9895c1d2176f4762fa926dd0ce6255a45fb5df08OUT 0x841ce48f9446c8e281d3f1444cb859b4a6d0738c0 ETH0.000630868012 ETH
0xfc5cdb56f5368e74fb2f354d68250ddca8bbfcb770740419c679978f1d88a5a5Transfer Out19420302021-10-05 12:39:0653 days 10 hrs ago0x9895c1d2176f4762fa926dd0ce6255a45fb5df08OUT 0x841ce48f9446c8e281d3f1444cb859b4a6d0738c0 ETH0.00171853403 ETH
0x9396d41fa04439350e897fb7b0fa91ccd4e31c10aa699ab87f3f4163e7f0b0faApprove19420042021-10-05 12:38:0553 days 10 hrs ago0x9895c1d2176f4762fa926dd0ce6255a45fb5df08OUT 0xfd086bc7cd5c481dcc9c85ebe478a1c0b69fcbb90 ETH0.000780196262 ETH
0xfe37f3337a62ed15f65d53b4ade39a990f1484b27b5e73890e71861d96807406Swap Exact ETH F...19419942021-10-05 12:38:0553 days 10 hrs ago0x9895c1d2176f4762fa926dd0ce6255a45fb5df08OUT SushiSwap: Router0.54 ETH0.001039733686 ETH
0x2ad18185d1042f296e2029d20fce127d640565c22a91c3c94975099dd92079cdSwap Exact Token...17088522021-09-28 7:48:5160 days 15 hrs ago0x9895c1d2176f4762fa926dd0ce6255a45fb5df08OUT SushiSwap: Router0 ETH0.000773096247 ETH
0xb7cbe39348bcb0c412184e0778fb8c03789fbc634c28fbe8ea3c76c2d26efa0bApprove17088492021-09-28 7:48:5160 days 15 hrs ago0x9895c1d2176f4762fa926dd0ce6255a45fb5df08OUT 0xff970a61a04b1ca14834a43f5de4533ebddb5cc80 ETH0.000675009638 ETH
0xba58af2a4128da54200cb76c8f44a74b92037b080702ef8aacf8a7589ac81997Swap Exact ETH F...17088102021-09-28 7:46:0660 days 15 hrs ago0x9895c1d2176f4762fa926dd0ce6255a45fb5df08OUT SushiSwap: Router0.05 ETH0.000898042999 ETH
0x31766065b7eb7a5b7851d8c1b67af8bea86ea1f27e3073f30879c323dea33557Approve12849742021-09-19 13:32:1369 days 9 hrs ago0x9895c1d2176f4762fa926dd0ce6255a45fb5df08OUT 0xe90ce9dbffbfb6910647d60f79f66baed851685f0 ETH0.000511858489 ETH
0x41c1824ba94aa6a8d56c3dc3fa287ae9b721d088a231dfdf87a9d435745b40c5Swap Exact ETH F...12849572021-09-19 13:32:1369 days 9 hrs ago0x9895c1d2176f4762fa926dd0ce6255a45fb5df08OUT SushiSwap: Router0.05 ETH0.000572552471 ETH
0xb4a39e949e4f2dde1d8af4ff4096eac72a94a57977ae5c45fc25c7b17656432eSwap Exact Token...11007562021-09-16 23:05:4871 days 23 hrs ago0x9895c1d2176f4762fa926dd0ce6255a45fb5df08OUT SushiSwap: Router0 ETH0.000661959382 ETH
0xae6f934b1b22436a48d28df031f0794fddfe8a16fa1f07dbabd5adbd043dcf79Swap Exact ETH F...11003952021-09-16 23:00:3872 days 4 mins ago0x9895c1d2176f4762fa926dd0ce6255a45fb5df08OUT SushiSwap: Router0.1 ETH0.000792585722 ETH
0x22e12150f2bff41b2f9c71e83388f4c423f93a9798a91fd3bccd397094abbf16Swap ETH For Exa...11003242021-09-16 22:59:2272 days 5 mins ago0x9895c1d2176f4762fa926dd0ce6255a45fb5df08OUT SushiSwap: Router0.25 ETH0.000633231548 ETH
0x13fc2881a4a56350fe6b223c1d18c9b27e6fe1986cf11b744e40c95d57bae3fdApprove10999042021-09-16 22:51:1172 days 13 mins ago0x9895c1d2176f4762fa926dd0ce6255a45fb5df08OUT 0x230021de5bf13450da7d984cc6bdc7cea328e9cc0 ETH0.00070110428 ETH
0x99d6a777590c6cccabace8367376cf8a2e5b03485c51f881a37167e86e3fbc35Swap Exact Token...10968372021-09-16 21:43:0972 days 1 hr ago0x9895c1d2176f4762fa926dd0ce6255a45fb5df08OUT SushiSwap: Router0 ETH0.000804234198 ETH
0x396028a55763052545bfdfca83e5435347a8a9c6f45d6b17093f161ce22e0655Approve10966372021-09-16 21:38:4072 days 1 hr ago0x9895c1d2176f4762fa926dd0ce6255a45fb5df08OUT 0xece39828f24333326e13cf33c59435da8f0ffcad0 ETH0.000698827571 ETH
0x060c53baeec81799153826a699f34c8bd403adadd0788dea56d4fa542740a94fSwap Exact ETH F...10965782021-09-16 21:38:2472 days 1 hr ago0x9895c1d2176f4762fa926dd0ce6255a45fb5df08OUT SushiSwap: Router0.01 ETH0.000782391294 ETH
0x4c1c762bb16529637df78e71c0b8a059304cb580377c5e0c23c407344741f781Swap Exact Token...10963002021-09-16 21:32:0172 days 1 hr ago0x9895c1d2176f4762fa926dd0ce6255a45fb5df08OUT SushiSwap: Router0 ETH0.000697536734 ETH
0x98b0497aa677aaab909982e573f84fdb1abfd4a8068fe432e0404e4ec1b160a8Swap Exact Token...10959712021-09-16 21:26:3772 days 1 hr ago0x9895c1d2176f4762fa926dd0ce6255a45fb5df08OUT SushiSwap: Router0 ETH0.000692123 ETH
0x4b8a454b75e8956d4a273c745d9ec18e7ddf56d18ac988def29d4733f3c928d6Swap Exact ETH F...10956552021-09-16 21:20:4272 days 1 hr ago0x9895c1d2176f4762fa926dd0ce6255a45fb5df08OUT SushiSwap: Router0.1 ETH0.000648957784 ETH
0x3d45ed65fe83818afb9eda3c21fb5ee557e9e01fdb86824622c8e4c9159b132eSwap Exact Token...10955702021-09-16 21:19:5372 days 1 hr ago0x9895c1d2176f4762fa926dd0ce6255a45fb5df08OUT SushiSwap: Router0 ETH0.000693101041 ETH
0x03250498223d49695a6251caa00f602848fc9d44f805e7be101a65abfbe233eeClaim Tokens10955222021-09-16 21:19:5272 days 1 hr ago0x9895c1d2176f4762fa926dd0ce6255a45fb5df08OUT0x899b6fa1d37927f44330776e7ecd83116df03ca70 ETH0.000633923715 ETH
0x2e2e98547fa52898163757fde68c81e742153aa57d4a4f88a4d41859e482258aApprove10950852021-09-16 21:10:3672 days 1 hr ago0x9895c1d2176f4762fa926dd0ce6255a45fb5df08OUT 0xb529bceff09777da2f5af91c86bb17ee0904fc9d0 ETH0.000696697469 ETH
0xb8461c6fdc45d83bd87718077a8a5922534ee1228e2be2b229e952cde64467b7Transfer10946172021-09-16 21:00:5572 days 2 hrs ago0x9895c1d2176f4762fa926dd0ce6255a45fb5df08OUT0x899b6fa1d37927f44330776e7ecd83116df03ca70.15 ETH0.000914625749 ETH
[ Download CSV Export 
Parent Txn Hash Block From To Value
Loading

Contract Name:
0 ETH

Compiler Version
0

Optimization Enabled:
0 ETH

Other Settings:
-NA-
Block Transaction Gas Used Reward
Age Block Fee Address BC Fee Address Voting Power Jailed Incoming
Block Uncle Number Difficulty Gas Used Reward
Loading
Loading
Make sure to use the "Vote Down" button for any spammy posts, and the "Vote Up" for interesting conversations.